Location: Pescara
(42.4670°N, 14.2170°E)
Time: 03:52:51
(UTC+02:00)

ISS - Pass Details

Date: 18 May 2021
Orbit: 417 x 422 km, 51.6° (Epoch: 14 June)

Event Time Altitude Azimuth Distance (km) Brightness Sun altitude
Rises 22:53:11 0° 283° (WNW) 2,363 0.7 -21.3°
Reaches altitude 10° 22:55:42 10° 302° (WNW) 1,501 -0.1 -21.5°
Maximum altitude 22:58:12 19° 350° (N) 1,071 -0.9 -21.8°
Drops below altitude 10° 23:00:43 10° 38° (NE) 1,505 -0.7 -22.0°
Sets 23:03:15 0° 57° (ENE) 2,372 0.1 -22.2°
